Home   Weather   Kyiv   Past weeks
Flag for Ukraine

Past Weather in Kyiv, Ukraine — Yesterday and Last 2 Weeks

Now
61 °F

Clear.


Feels Like: 61 °F
Forecast: 72 / 60 °F
Wind: 6 mph from West

Location: Kyiv

Current Time: Jul 23, 2019 at 4:45:35 am

Latest Report: Jul 23, 2019 at 4:00 am


Visibility: 10 mi

Pressure: 29.98 "Hg

Humidity: 94%

Dew Point: 59 °F

Location of KyivLocation

Past Weather in Kyiv — Graph

°F

Kyiv Temperature Yesterday

Maximum temperature yesterday: 75 °F (at 9:00 am)
Minimum temperature yesterday: 61 °F (at 4:00 am)
Average temperature yesterday: 69 °F

High & Low Weather Summary for the Past Weeks

 TemperatureHumidityPressure
High84 °F (Jul 21, 2:00 pm)100% (Jul 11, 1:00 am)30.09 "Hg (Jul 11, 1:00 am)
Low50 °F (Jul 12, 5:00 am)28% (Jul 20, 4:30 pm)29.65 "Hg (Jul 8, 3:00 am)
Average64 °F73%29.84 "Hg
* Reported Jul 8 3:00 am — Jul 23 3:30 am, Kyiv. Weather by CustomWeather, © 2019

Note: Actual official high and low records may vary slightly from our data, if they occured in-between our weather recording intervals... More about our weather records

Advertising

Kyiv Weather History for the Previous 24 Hours

Scroll right to see more
 ConditionsComfort  
Time TempWeatherWind HumidityBarometerVisibility
3:30 am
Tue, Jul 23
61 °FClear.3 mph94%29.98 "Hg10 mi
3:00 am61 °FClear.3 mph94%29.98 "Hg10 mi
2:30 am63 °FClear.3 mph88%30.01 "Hg10 mi
2:00 am61 °FClear.3 mph94%30.01 "Hg10 mi
1:30 am61 °FClear.3 mph94%30.01 "Hg10 mi
1:00 am63 °FClear.6 mph94%30.01 "Hg10 mi
12:30 am63 °FClear.3 mph94%30.01 "Hg10 mi
12:00 am63 °FClear.3 mph94%30.01 "Hg10 mi
11:30 pm
Mon, Jul 22
64 °FClear.6 mph88%30.01 "Hg10 mi
11:00 pm64 °FClear.3 mph88%30.01 "Hg10 mi
10:30 pm66 °FClear.3 mph83%30.04 "Hg10 mi
10:00 pm68 °FClear.6 mph78%30.04 "Hg10 mi
9:30 pm70 °FClear.8 mph73%30.04 "Hg10 mi
9:00 pm70 °FClear.8 mph73%30.01 "Hg10 mi
8:30 pm72 °FPassing clouds.6 mph69%30.01 "HgN/A
8:00 pm72 °FPassing clouds.6 mph69%30.01 "HgN/A
7:30 pm72 °FPassing clouds.10 mph69%30.01 "HgN/A
7:00 pm73 °FPassing clouds.13 mph65%30.01 "HgN/A
6:30 pm75 °FSprinkles. Scattered clouds.10 mph65%29.98 "HgN/A
6:00 pm75 °FScattered clouds.8 mph61%29.98 "HgN/A
5:30 pm75 °FPartly sunny.8 mph61%30.01 "HgN/A
5:00 pm75 °FPartly sunny.10 mph65%30.01 "HgN/A
4:30 pm75 °FPartly sunny.10 mph65%30.01 "HgN/A
3:30 pm75 °FScattered clouds.13 mph65%30.01 "HgN/A
3:00 pm75 °FScattered clouds.13 mph65%30.01 "HgN/A
2:30 pm73 °FScattered clouds.10 mph69%30.01 "HgN/A
2:00 pm72 °FScattered clouds.8 mph78%30.04 "HgN/A
1:30 pm68 °FBroken clouds.13 mph88%30.04 "HgN/A
1:00 pm70 °FBroken clouds.8 mph83%30.04 "HgN/A
12:30 pm70 °FPassing clouds.6 mph83%30.04 "HgN/A
12:00 pm70 °FPartly sunny.6 mph83%30.04 "HgN/A
11:30 am68 °FPassing clouds.6 mph94%30.04 "HgN/A
11:00 am68 °FPassing clouds.6 mph88%30.04 "HgN/A
10:30 am70 °FScattered clouds.8 mph78%30.01 "HgN/A
10:00 am72 °FPassing clouds.10 mph73%30.01 "HgN/A
9:30 am73 °FPassing clouds.13 mph69%30.01 "HgN/A
9:00 am75 °FSunny.1 mph61%30.01 "Hg10 mi
8:30 am73 °FPassing clouds.3 mph65%30.01 "HgN/A
8:00 am72 °FSunny.3 mph69%30.01 "Hg10 mi
7:30 am70 °FSunny.1 mph73%30.01 "Hg10 mi
7:00 am68 °FSunny.3 mph78%30.01 "Hg10 mi
6:30 am66 °FSunny.No wind88%30.01 "Hg10 mi
6:00 am63 °FSunny.No wind88%30.01 "Hg10 mi
5:30 am61 °FSunny.No wind94%30.01 "Hg10 mi
5:00 am63 °FClear.1 mph88%30.01 "Hg10 mi
4:30 am63 °FClear.No wind88%30.04 "Hg10 mi
4:00 am61 °FClear.1 mph94%30.04 "Hg10 mi
Weather by CustomWeather, © 2019

See weather overview